| time (UTC) | temp F | wind direction | speed MPH | gust MPH | rain 1hr in | rain 24hr in | rain mn in | humidity % | barometer mb |
| 20260506234817 | 53 | 344 | 1.0 | 2.0 | 0.00 | 0.33 | 0.33 | 64 | 1011.6 |
| 20260506234315 | 53 | 345 | 0.0 | 1.0 | 0.00 | 0.33 | 0.33 | 63 | 1011.4 |
| 20260506233812 | 53 | 323 | 0.0 | 2.0 | 0.00 | 0.33 | 0.33 | 63 | 1011.3 |
| 20260506233308 | 53 | 338 | 1.0 | 1.0 | 0.00 | 0.33 | 0.33 | 63 | 1011.5 |
| 20260506232805 | 53 | 345 | 1.0 | 2.0 | 0.00 | 0.33 | 0.33 | 61 | 1011.3 |
| 20260506232300 | 53 | 344 | 2.0 | 2.0 | 0.00 | 0.33 | 0.33 | 60 | 1011.4 |
| 20260506231757 | 54 | 341 | 1.0 | 1.0 | 0.00 | 0.33 | 0.33 | 59 | 1011.8 |
| 20260506231255 | 54 | 334 | 0.0 | 2.0 | 0.00 | 0.33 | 0.33 | 61 | 1011.6 |
| 20260506230752 | 54 | 346 | 0.0 | 1.0 | 0.00 | 0.33 | 0.33 | 63 | 1011.8 |
| 20260506230249 | 54 | 346 | 0.0 | 2.0 | 0.00 | 0.33 | 0.33 | 64 | 1011.9 |
| 20260506225745 | 54 | 338 | 0.0 | 1.0 | 0.00 | 0.33 | 0.33 | 62 | 1011.7 |
| 20260506225243 | 54 | 335 | 0.0 | 1.0 | 0.00 | 0.33 | 0.33 | 62 | 1011.8 |
| 20260506224738 | 54 | 281 | 1.0 | 1.0 | 0.00 | 0.33 | 0.33 | 59 | 1011.9 |
| 20260506224236 | 54 | 345 | 0.0 | 1.0 | 0.00 | 0.33 | 0.33 | 61 | 1012.0 |
| 20260506223732 | 54 | 336 | 0.0 | 1.0 | 0.00 | 0.33 | 0.33 | 60 | 1011.8 |
| 20260506223228 | 54 | 342 | 0.0 | 1.0 | 0.00 | 0.33 | 0.33 | 58 | 1011.7 |
| 20260506222725 | 54 | 345 | 0.0 | 1.0 | 0.00 | 0.33 | 0.33 | 63 | 1011.8 |
| 20260506222220 | 54 | 306 | 3.0 | 3.0 | 0.00 | 0.33 | 0.33 | 58 | 1011.9 |
| 20260506221719 | 54 | 316 | 1.0 | 1.0 | 0.00 | 0.33 | 0.33 | 61 | 1012.0 |
| 20260506221217 | 54 | 346 | 1.0 | 2.0 | 0.00 | 0.33 | 0.33 | 60 | 1011.8 |
| 20260506220714 | 54 | 298 | 2.0 | 3.0 | 0.00 | 0.33 | 0.33 | 58 | 1011.5 |
| 20260506220208 | 55 | 337 | 0.0 | 1.0 | 0.00 | 0.33 | 0.33 | 61 | 1011.5 |
| 20260506215705 | 55 | 337 | 0.0 | 1.0 | 0.00 | 0.33 | 0.33 | 62 | 1011.6 |
| 20260506215201 | 55 | 337 | 1.0 | 2.0 | 0.00 | 0.33 | 0.33 | 60 | 1011.4 |
| 20260506214658 | 55 | 314 | 2.0 | 3.0 | 0.00 | 0.33 | 0.33 | 59 | 1011.2 |
| 20260506214155 | 55 | 255 | 2.0 | 3.0 | 0.00 | 0.33 | 0.33 | 61 | 1011.3 |
| 20260506213653 | 55 | 282 | 1.0 | 3.0 | 0.00 | 0.33 | 0.33 | 60 | 1011.2 |
| 20260506213150 | 55 | 284 | 1.0 | 1.0 | 0.00 | 0.33 | 0.33 | 64 | 1011.2 |
| 20260506212647 | 55 | 338 | 1.0 | 1.0 | 0.00 | 0.33 | 0.33 | 66 | 1011.1 |
| 20260506212142 | 55 | 341 | 1.0 | 2.0 | 0.00 | 0.33 | 0.33 | 62 | 1011.2 |
| 20260506211638 | 55 | 345 | 0.0 | 1.0 | 0.00 | 0.33 | 0.33 | 64 | 1011.0 |
| 20260506211135 | 55 | 344 | 2.0 | 5.0 | 0.00 | 0.33 | 0.33 | 62 | 1011.4 |
| 20260506210632 | 55 | 345 | 1.0 | 3.0 | 0.00 | 0.33 | 0.33 | 61 | 1011.0 |
| 20260506210128 | 54 | 348 | 1.0 | 2.0 | 0.00 | 0.33 | 0.33 | 62 | 1010.9 |
| 20260506205625 | 54 | 347 | 3.0 | 3.0 | 0.00 | 0.33 | 0.33 | 58 | 1011.1 |
| 20260506205120 | 55 | 332 | 1.0 | 2.0 | 0.00 | 0.33 | 0.33 | 58 | 1011.3 |
| 20260506204618 | 55 | 336 | 1.0 | 5.0 | 0.00 | 0.33 | 0.33 | 60 | 1011.2 |
| 20260506204115 | 55 | 358 | 1.0 | 1.0 | 0.00 | 0.33 | 0.33 | 62 | 1011.1 |
| 20260506203613 | 55 | 342 | 0.0 | 1.0 | 0.00 | 0.33 | 0.33 | 59 | 1010.8 |
| 20260506203109 | 55 | 340 | 2.0 | 2.0 | 0.00 | 0.33 | 0.33 | 62 | 1010.9 |
| 20260506202608 | 55 | 342 | 1.0 | 3.0 | 0.00 | 0.33 | 0.33 | 59 | 1010.7 |
| 20260506202103 | 56 | 301 | 3.0 | 3.0 | 0.00 | 0.33 | 0.33 | 57 | 1010.8 |
| 20260506201601 | 56 | 348 | 4.0 | 5.0 | 0.00 | 0.33 | 0.33 | 59 | 1010.8 |
| 20260506201057 | 56 | 5 | 3.0 | 5.0 | 0.00 | 0.33 | 0.33 | 62 | 1010.8 |
| 20260506200554 | 55 | 306 | 1.0 | 3.0 | 0.00 | 0.33 | 0.33 | 60 | 1010.8 |
| 20260506200051 | 55 | 32 | 3.0 | 3.0 | 0.00 | 0.33 | 0.33 | 64 | 1011.0 |
| 20260506195547 | 55 | 336 | 0.0 | 3.0 | 0.00 | 0.33 | 0.33 | 60 | 1010.8 |
| 20260506195044 | 55 | 327 | 2.0 | 5.0 | 0.00 | 0.33 | 0.33 | 61 | 1011.0 |
| 20260506194542 | 55 | 333 | 2.0 | 5.0 | 0.00 | 0.33 | 0.33 | 64 | 1011.1 |
| 20260506194038 | 54 | 348 | 2.0 | 3.0 | 0.00 | 0.33 | 0.33 | 63 | 1010.9 |
| 20260506193535 | 55 | 325 | 1.0 | 5.0 | 0.00 | 0.33 | 0.33 | 63 | 1010.9 |
| 20260506193032 | 55 | 355 | 0.0 | 2.0 | 0.00 | 0.33 | 0.33 | 63 | 1011.0 |
| 20260506192529 | 55 | 346 | 0.0 | 2.0 | 0.00 | 0.33 | 0.33 | 64 | 1011.1 |
| 20260506192025 | 55 | 293 | 3.0 | 5.0 | 0.00 | 0.33 | 0.33 | 61 | 1010.9 |
| 20260506191522 | 55 | 348 | 0.0 | 3.0 | 0.00 | 0.33 | 0.33 | 65 | 1011.0 |
| 20260506191018 | 55 | 295 | 2.0 | 3.0 | 0.00 | 0.33 | 0.33 | 61 | 1010.9 |
| 20260506190515 | 56 | 47 | 3.0 | 5.0 | 0.00 | 0.33 | 0.33 | 61 | 1010.9 |
| 20260506190012 | 57 | 327 | 1.0 | 3.0 | 0.00 | 0.33 | 0.33 | 61 | 1010.4 |
| 20260506185509 | 57 | 8 | 2.0 | 7.0 | 0.00 | 0.33 | 0.33 | 61 | 1010.5 |
| 20260506185006 | 57 | 356 | 4.0 | 7.0 | 0.00 | 0.33 | 0.33 | 61 | 1010.4 |
| 20260506184503 | 57 | 344 | 2.0 | 6.0 | 0.00 | 0.33 | 0.33 | 64 | 1010.5 |
| 20260506184000 | 57 | 329 | 3.0 | 7.0 | 0.00 | 0.33 | 0.33 | 59 | 1010.8 |
| 20260506183456 | 57 | 349 | 1.0 | 6.0 | 0.00 | 0.33 | 0.33 | 61 | 1010.9 |
| 20260506182953 | 58 | 31 | 2.0 | 2.0 | 0.00 | 0.33 | 0.33 | 59 | 1010.7 |
| 20260506182450 | 57 | 324 | 0.0 | 2.0 | 0.00 | 0.33 | 0.33 | 61 | 1010.9 |
| 20260506181947 | 57 | 28 | 2.0 | 5.0 | 0.00 | 0.33 | 0.33 | 65 | 1010.8 |
| 20260506181445 | 57 | 328 | 1.0 | 3.0 | 0.00 | 0.33 | 0.33 | 59 | 1011.1 |
| 20260506180942 | 57 | 316 | 1.0 | 3.0 | 0.00 | 0.33 | 0.33 | 62 | 1010.9 |
| 20260506180438 | 57 | 14 | 1.0 | 3.0 | 0.00 | 0.33 | 0.33 | 60 | 1011.1 |
| 20260506175935 | 57 | 32 | 1.0 | 6.0 | 0.00 | 0.33 | 0.33 | 65 | 1010.9 |
| 20260506175432 | 57 | 4 | 2.0 | 2.0 | 0.00 | 0.33 | 0.33 | 63 | 1010.8 |
| 20260506174928 | 57 | 330 | 1.0 | 3.0 | 0.00 | 0.33 | 0.33 | 61 | 1010.9 |
| 20260506174426 | 57 | 315 | 1.0 | 2.0 | 0.00 | 0.33 | 0.33 | 60 | 1010.8 |
| 20260506173923 | 57 | 333 | 2.0 | 3.0 | 0.00 | 0.33 | 0.33 | 63 | 1011.0 |
| 20260506173420 | 56 | 341 | 0.0 | 2.0 | 0.00 | 0.33 | 0.33 | 62 | 1010.8 |
| 20260506172917 | 57 | 13 | 4.0 | 7.0 | 0.00 | 0.33 | 0.33 | 61 | 1010.9 |
| 20260506172414 | 57 | 306 | 1.0 | 3.0 | 0.00 | 0.33 | 0.33 | 65 | 1011.0 |
| 20260506171911 | 57 | 2 | 3.0 | 3.0 | 0.00 | 0.33 | 0.33 | 59 | 1010.9 |
| 20260506171408 | 57 | 3 | 2.0 | 2.0 | 0.00 | 0.33 | 0.33 | 62 | 1010.7 |
| 20260506170906 | 57 | 326 | 2.0 | 5.0 | 0.00 | 0.33 | 0.33 | 66 | 1010.8 |
| 20260506170401 | 56 | 324 | 1.0 | 6.0 | 0.00 | 0.33 | 0.33 | 67 | 1010.3 |
| 20260506165855 | 56 | 21 | 2.0 | 5.0 | 0.00 | 0.33 | 0.33 | 67 | 1010.7 |
| 20260506165353 | 55 | 342 | 3.0 | 3.0 | 0.00 | 0.33 | 0.33 | 63 | 1010.9 |
| 20260506164849 | 56 | 301 | 2.0 | 7.0 | 0.00 | 0.33 | 0.33 | 64 | 1010.8 |
| 20260506164345 | 56 | 341 | 1.0 | 5.0 | 0.00 | 0.33 | 0.33 | 66 | 1010.9 |
| 20260506163843 | 55 | 19 | 3.0 | 5.0 | 0.00 | 0.33 | 0.33 | 66 | 1011.1 |
| 20260506163337 | 55 | 348 | 1.0 | 2.0 | 0.00 | 0.33 | 0.33 | 69 | 1010.8 |
| 20260506162833 | 55 | 329 | 0.0 | 3.0 | 0.00 | 0.33 | 0.33 | 69 | 1010.8 |
| 20260506162331 | 55 | 347 | 1.0 | 7.0 | 0.00 | 0.33 | 0.33 | 68 | 1011.0 |
| 20260506161823 | 55 | 340 | 1.0 | 5.0 | 0.00 | 0.33 | 0.33 | 65 | 1011.2 |
| 20260506161320 | 55 | 350 | 0.0 | 2.0 | 0.00 | 0.33 | 0.33 | 70 | 1011.1 |
| 20260506160817 | 55 | 338 | 2.0 | 5.0 | 0.00 | 0.33 | 0.33 | 72 | 1010.9 |
| 20260506160314 | 54 | 321 | 1.0 | 3.0 | 0.00 | 0.33 | 0.33 | 70 | 1010.9 |
| 20260506155812 | 54 | 308 | 0.0 | 2.0 | 0.00 | 0.33 | 0.33 | 68 | 1010.5 |
| 20260506155309 | 54 | 301 | 1.0 | 3.0 | 0.00 | 0.33 | 0.33 | 69 | 1010.3 |
| 20260506153421 | 52 | 349 | 1.0 | 3.0 | 0.00 | 0.33 | 0.33 | 74 | 1010.3 |
| 20260506152919 | 53 | 346 | 2.0 | 3.0 | 0.00 | 0.33 | 0.33 | 73 | 1010.2 |
| 20260506152415 | 53 | 326 | 1.0 | 2.0 | 0.00 | 0.33 | 0.33 | 76 | 1010.4 |
| 20260506151915 | 52 | 29 | 2.0 | 5.0 | 0.00 | 0.33 | 0.33 | 72 | 1010.0 |
| 20260506151411 | 53 | 342 | 2.0 | 2.0 | 0.00 | 0.33 | 0.33 | 73 | 1010.3 |
| 20260506150908 | 52 | 0 | 2.0 | 5.0 | 0.00 | 0.33 | 0.33 | 75 | 1010.0 |
| 20260506150404 | 51 | 30 | 1.0 | 7.0 | 0.00 | 0.33 | 0.33 | 72 | 1010.0 |
| 20260506145901 | 51 | 349 | 3.0 | 5.0 | 0.00 | 0.33 | 0.33 | 73 | 1010.0 |
| 20260506145357 | 51 | 337 | 0.0 | 2.0 | 0.00 | 0.33 | 0.33 | 72 | 1010.0 |
| 20260506144855 | 50 | 274 | 1.0 | 5.0 | 0.00 | 0.33 | 0.33 | 73 | 1010.0 |
| 20260506144351 | 50 | 4 | 1.0 | 2.0 | 0.00 | 0.33 | 0.33 | 75 | 1010.0 |
| 20260506143850 | 50 | 343 | 0.0 | 2.0 | 0.00 | 0.33 | 0.33 | 75 | 1009.9 |
| 20260506143346 | 51 | 337 | 3.0 | 5.0 | 0.00 | 0.33 | 0.33 | 75 | 1009.9 |
| 20260506142845 | 50 | 333 | 1.0 | 2.0 | 0.00 | 0.33 | 0.33 | 80 | 1009.9 |
| 20260506142343 | 50 | 13 | 3.0 | 5.0 | 0.00 | 0.33 | 0.33 | 76 | 1009.7 |
| 20260506141841 | 50 | 314 | 3.0 | 3.0 | 0.00 | 0.33 | 0.33 | 77 | 1009.9 |
| 20260506141338 | 49 | 317 | 1.0 | 7.0 | 0.00 | 0.33 | 0.33 | 78 | 1009.4 |
| 20260506140836 | 49 | 342 | 1.0 | 2.0 | 0.00 | 0.33 | 0.33 | 80 | 1009.6 |
| 20260506140333 | 49 | 308 | 2.0 | 2.0 | 0.00 | 0.33 | 0.33 | 82 | 1009.4 |
| 20260506135830 | 48 | 336 | 0.0 | 3.0 | 0.00 | 0.33 | 0.33 | 85 | 1009.5 |
| 20260506135326 | 48 | 345 | 1.0 | 3.0 | 0.00 | 0.33 | 0.33 | 84 | 1009.5 |
| 20260506134823 | 48 | 35 | 2.0 | 5.0 | 0.00 | 0.33 | 0.33 | 84 | 1009.1 |
| 20260506134319 | 47 | 342 | 1.0 | 3.0 | 0.00 | 0.33 | 0.33 | 87 | 1009.0 |
| 20260506133817 | 47 | 342 | 1.0 | 2.0 | 0.00 | 0.33 | 0.33 | 88 | 1009.2 |
| 20260506133313 | 47 | 293 | 3.0 | 5.0 | 0.00 | 0.33 | 0.33 | 88 | 1009.2 |
| 20260506132810 | 46 | 317 | 2.0 | 5.0 | 0.00 | 0.33 | 0.33 | 90 | 1009.2 |
| 20260506132307 | 45 | 348 | 1.0 | 6.0 | 0.00 | 0.33 | 0.33 | 92 | 1009.1 |
| 20260506131805 | 45 | 306 | 2.0 | 6.0 | 0.00 | 0.33 | 0.33 | 93 | 1009.0 |
| 20260506131301 | 45 | 350 | 3.0 | 3.0 | 0.00 | 0.33 | 0.33 | 94 | 1009.2 |
| 20260506130758 | 45 | 348 | 1.0 | 3.0 | 0.00 | 0.33 | 0.33 | 95 | 1009.0 |
| 20260506130254 | 44 | 341 | 1.0 | 1.0 | 0.00 | 0.33 | 0.33 | 95 | 1009.0 |
| 20260506125753 | 44 | 339 | 0.0 | 2.0 | 0.00 | 0.33 | 0.33 | 95 | 1008.9 |
| 20260506125250 | 44 | 339 | 0.0 | 1.0 | 0.00 | 0.33 | 0.33 | 95 | 1008.8 |
| 20260506124749 | 44 | 21 | 2.0 | 3.0 | 0.00 | 0.33 | 0.33 | 95 | 1008.8 |
| 20260506124246 | 44 | 331 | 0.0 | 3.0 | 0.00 | 0.33 | 0.33 | 96 | 1008.8 |
| 20260506123743 | 44 | 3 | 1.0 | 2.0 | 0.00 | 0.33 | 0.33 | 96 | 1008.8 |
| 20260506123242 | 43 | 345 | 1.0 | 3.0 | 0.00 | 0.33 | 0.33 | 96 | 1008.7 |
| 20260506122738 | 44 | 348 | 1.0 | 1.0 | 0.00 | 0.33 | 0.33 | 97 | 1008.5 |
| 20260506122235 | 44 | 329 | 2.0 | 5.0 | 0.00 | 0.33 | 0.33 | 97 | 1008.4 |
| 20260506121734 | 44 | 333 | 2.0 | 2.0 | 0.00 | 0.33 | 0.33 | 97 | 1008.5 |
| 20260506121230 | 44 | 339 | 0.0 | 1.0 | 0.00 | 0.33 | 0.33 | 97 | 1008.3 |
| 20260506120727 | 44 | 341 | 0.0 | 2.0 | 0.00 | 0.33 | 0.33 | 98 | 1008.1 |
| 20260506120225 | 44 | 33 | 1.0 | 2.0 | 0.00 | 0.33 | 0.33 | 98 | 1008.0 |
| 20260506115723 | 44 | 308 | 0.0 | 0.0 | 0.00 | 0.33 | 0.33 | 98 | 1008.1 |
| 20260506115221 | 43 | 341 | 0.0 | 2.0 | 0.00 | 0.33 | 0.33 | 98 | 1008.2 |
| 20260506114718 | 43 | 346 | 1.0 | 1.0 | 0.00 | 0.33 | 0.33 | 98 | 1008.3 |
| 20260506114216 | 43 | 343 | 0.0 | 0.0 | 0.00 | 0.33 | 0.33 | 98 | 1008.2 |
| 20260506113714 | 43 | 342 | 0.0 | 1.0 | 0.00 | 0.33 | 0.33 | 98 | 1007.9 |
| 20260506113211 | 43 | 358 | 1.0 | 5.0 | 0.00 | 0.33 | 0.33 | 98 | 1007.9 |
| 20260506112707 | 43 | 338 | 1.0 | 2.0 | 0.00 | 0.33 | 0.33 | 99 | 1007.5 |
| 20260506112205 | 43 | 344 | 0.0 | 3.0 | 0.00 | 0.33 | 0.33 | 99 | 1007.5 |
| 20260506111702 | 43 | 342 | 0.0 | 5.0 | 0.00 | 0.33 | 0.33 | 99 | 1006.9 |
| 20260506111200 | 44 | 343 | 3.0 | 3.0 | 0.00 | 0.33 | 0.33 | 99 | 1007.0 |
| 20260506110657 | 44 | 343 | 1.0 | 2.0 | 0.00 | 0.33 | 0.33 | 99 | 1006.7 |
| 20260506110155 | 44 | 359 | 3.0 | 5.0 | 0.00 | 0.33 | 0.33 | 99 | 1006.6 |
| 20260506105651 | 44 | 344 | 0.0 | 1.0 | 0.00 | 0.33 | 0.33 | 99 | 1006.6 |
| 20260506105148 | 44 | 343 | 1.0 | 3.0 | 0.00 | 0.33 | 0.33 | 99 | 1007.1 |
| 20260506104646 | 44 | 359 | 1.0 | 1.0 | 0.00 | 0.33 | 0.33 | 99 | 1007.5 |
| 20260506104143 | 44 | 339 | 1.0 | 3.0 | 0.00 | 0.33 | 0.33 | 99 | 1007.1 |
| 20260506103640 | 44 | 337 | 1.0 | 3.0 | 0.00 | 0.33 | 0.33 | 99 | 1006.5 |
| 20260506103137 | 44 | 351 | 0.0 | 1.0 | 0.00 | 0.33 | 0.33 | 99 | 1006.5 |
| 20260506102635 | 44 | 336 | 0.0 | 5.0 | 0.00 | 0.33 | 0.33 | 99 | 1006.7 |
| 20260506102133 | 45 | 358 | 2.0 | 5.0 | 0.00 | 0.33 | 0.33 | 99 | 1006.6 |
| 20260506101629 | 45 | 354 | 2.0 | 2.0 | 0.00 | 0.33 | 0.33 | 99 | 1006.8 |
| 20260506101126 | 45 | 337 | 0.0 | 3.0 | 0.00 | 0.33 | 0.33 | 99 | 1007.0 |
| 20260506100625 | 45 | 333 | 0.0 | 1.0 | 0.00 | 0.33 | 0.33 | 99 | 1006.7 |
| 20260506100122 | 45 | 0 | 1.0 | 2.0 | 0.00 | 0.33 | 0.33 | 99 | 1006.3 |
| 20260506095621 | 45 | 9 | 2.0 | 3.0 | 0.00 | 0.33 | 0.33 | 99 | 1006.3 |
| 20260506095117 | 45 | 3 | 0.0 | 1.0 | 0.00 | 0.33 | 0.33 | 99 | 1005.8 |
| 20260506094615 | 45 | 353 | 0.0 | 0.0 | 0.00 | 0.33 | 0.33 | 99 | 1005.8 |
| 20260506094112 | 45 | 339 | 0.0 | 0.0 | 0.00 | 0.33 | 0.33 | 99 | 1005.9 |
| 20260506093610 | 45 | 6 | 0.0 | 1.0 | 0.00 | 0.33 | 0.33 | 99 | 1005.8 |
| 20260506093107 | 45 | 340 | 2.0 | 3.0 | 0.00 | 0.33 | 0.33 | 99 | 1005.5 |
| 20260506092605 | 45 | 342 | 1.0 | 2.0 | 0.00 | 0.33 | 0.33 | 99 | 1005.7 |
| 20260506092102 | 45 | 350 | 0.0 | 2.0 | 0.00 | 0.33 | 0.33 | 99 | 1005.6 |
| 20260506091600 | 45 | 13 | 3.0 | 3.0 | 0.00 | 0.33 | 0.33 | 99 | 1005.8 |
| 20260506091057 | 45 | 334 | 2.0 | 5.0 | 0.05 | 0.33 | 0.33 | 99 | 1005.7 |
| 20260506090555 | 45 | 335 | 0.0 | 2.0 | 0.05 | 0.33 | 0.33 | 99 | 1005.9 |
| 20260506090051 | 44 | 317 | 0.0 | 3.0 | 0.00 | 0.32 | 0.32 | 99 | 1005.7 |
| 20260506085548 | 44 | 338 | 3.0 | 6.0 | 0.07 | 0.32 | 0.32 | 99 | 1005.8 |
| 20260506085044 | 44 | 339 | 1.0 | 5.0 | 0.07 | 0.32 | 0.32 | 99 | 1005.6 |
| 20260506084541 | 44 | 343 | 1.0 | 5.0 | 0.05 | 0.31 | 0.31 | 99 | 1005.6 |
| 20260506084037 | 44 | 0 | 4.0 | 5.0 | 0.12 | 0.31 | 0.31 | 99 | 1005.9 |
| 20260506083535 | 44 | 0 | 1.0 | 3.0 | 0.12 | 0.30 | 0.30 | 99 | 1006.1 |
| 20260506083032 | 44 | 350 | 3.0 | 6.0 | 0.05 | 0.29 | 0.29 | 99 | 1005.9 |
| 20260506082529 | 44 | 3 | 3.0 | 5.0 | 0.07 | 0.28 | 0.28 | 99 | 1005.9 |
| 20260506082024 | 45 | 346 | 3.0 | 8.0 | 0.12 | 0.28 | 0.28 | 99 | 1005.8 |
| 20260506081523 | 45 | 341 | 1.0 | 2.0 | 0.05 | 0.27 | 0.27 | 99 | 1005.8 |
| 20260506081020 | 45 | 248 | 3.0 | 3.0 | 0.07 | 0.26 | 0.26 | 99 | 1005.7 |
| 20260506080517 | 45 | 347 | 2.0 | 8.0 | 0.12 | 0.26 | 0.26 | 99 | 1005.7 |
| 20260506073501 | 45 | 341 | 2.0 | 7.0 | 0.00 | 0.23 | 0.23 | 99 | 1005.1 |
| 20260506072958 | 45 | 334 | 5.0 | 8.0 | 0.00 | 0.23 | 0.23 | 99 | 1005.3 |
| 20260506072455 | 45 | 349 | 1.0 | 6.0 | 0.07 | 0.23 | 0.23 | 99 | 1005.1 |
| 20260506071953 | 45 | 4 | 3.0 | 5.0 | 0.07 | 0.23 | 0.23 | 99 | 1005.0 |
| 20260506071451 | 45 | 321 | 4.0 | 6.0 | 0.05 | 0.22 | 0.22 | 99 | 1005.3 |
| 20260506070947 | 45 | 337 | 1.0 | 3.0 | 0.05 | 0.22 | 0.22 | 99 | 1005.5 |
| 20260506070444 | 45 | 346 | 2.0 | 3.0 | 0.12 | 0.21 | 0.21 | 99 | 1005.5 |
| 20260506062422 | 45 | 348 | 1.0 | 6.0 | 0.07 | 0.13 | 0.13 | 99 | 1005.4 |
| 20260506061918 | 45 | 340 | 2.0 | 7.0 | 0.12 | 0.13 | 0.13 | 99 | 1005.4 |
| 20260506061415 | 45 | 329 | 2.0 | 7.0 | 0.12 | 0.12 | 0.12 | 99 | 1005.2 |
| 20260506060912 | 45 | 348 | 1.0 | 6.0 | 0.14 | 0.11 | 0.11 | 99 | 1005.4 |
| 20260506060410 | 46 | 357 | 0.0 | 1.0 | 0.12 | 0.10 | 0.10 | 99 | 1005.5 |
| 20260506051342 | 46 | 249 | 1.0 | 3.0 | 0.00 | 0.05 | 0.05 | 99 | 1005.5 |
| 20260506050840 | 47 | 347 | 1.0 | 2.0 | 0.05 | 0.05 | 0.05 | 99 | 1005.6 |
| 20260506050337 | 47 | 347 | 0.0 | 3.0 | 0.05 | 0.05 | 0.05 | 99 | 1005.6 |
| 20260506044827 | 47 | 331 | 1.0 | 3.0 | 0.17 | 0.03 | 0.03 | 99 | 1006.0 |
| 20260506044325 | 47 | 324 | 1.0 | 2.0 | 0.05 | 0.01 | 0.01 | 99 | 1006.1 |
| 20260506043822 | 47 | 306 | 2.0 | 2.0 | 0.00 | 0.00 | 0.00 | 99 | 1006.1 |
| 20260506043320 | 48 | 341 | 0.0 | 2.0 | 0.00 | 0.00 | 0.00 | 99 | 1005.9 |
| 20260506042818 | 48 | 342 | 3.0 | 3.0 | 0.00 | 0.00 | 0.00 | 99 | 1005.6 |
| 20260506042316 | 48 | 354 | 1.0 | 2.0 | 0.00 | 0.00 | 0.00 | 99 | 1005.4 |
| 20260506041815 | 48 | 14 | 2.0 | 5.0 | 0.00 | 0.00 | 0.00 | 99 | 1005.6 |
| 20260506041311 | 48 | 335 | 3.0 | 6.0 | 0.00 | 0.00 | 0.00 | 99 | 1005.6 |
| 20260506040809 | 47 | 9 | 0.0 | 2.0 | 0.00 | 0.00 | 0.00 | 99 | 1005.8 |
| 20260506040306 | 48 | 347 | 2.0 | 3.0 | 0.00 | 0.00 | 0.00 | 99 | 1005.6 |
| 20260506035802 | 48 | 25 | 1.0 | 2.0 | 0.00 | 0.91 | 0.91 | 99 | 1005.6 |
| 20260506035259 | 47 | 29 | 0.0 | 3.0 | 0.00 | 0.91 | 0.91 | 99 | 1005.8 |
| 20260506034756 | 48 | 11 | 1.0 | 2.0 | 0.00 | 0.91 | 0.91 | 99 | 1005.6 |
| 20260506034254 | 48 | 346 | 1.0 | 2.0 | 0.00 | 0.91 | 0.91 | 99 | 1005.6 |
| 20260506033750 | 48 | 346 | 1.0 | 5.0 | 0.07 | 0.91 | 0.91 | 99 | 1005.9 |
| 20260506033247 | 47 | 12 | 1.0 | 3.0 | 0.07 | 0.91 | 0.91 | 99 | 1005.9 |
| 20260506032744 | 47 | 340 | 3.0 | 6.0 | 0.05 | 0.90 | 0.90 | 99 | 1005.9 |
| 20260506032241 | 48 | 327 | 3.0 | 5.0 | 0.12 | 0.90 | 0.90 | 99 | 1006.1 |
| 20260506031738 | 48 | 332 | 0.0 | 6.0 | 0.07 | 0.89 | 0.89 | 99 | 1006.2 |
| 20260506031235 | 49 | 294 | 4.0 | 6.0 | 0.07 | 0.88 | 0.88 | 99 | 1006.2 |
| 20260506030733 | 49 | 344 | 3.0 | 5.0 | 0.19 | 0.88 | 0.88 | 99 | 1006.4 |
| 20260506030231 | 49 | 329 | 1.0 | 6.0 | 0.17 | 0.87 | 0.87 | 99 | 1006.3 |
| 20260506025727 | 49 | 10 | 1.0 | 2.0 | 0.17 | 0.85 | 0.85 | 99 | 1006.6 |
| 20260506025224 | 49 | 337 | 2.0 | 3.0 | 0.17 | 0.83 | 0.83 | 99 | 1006.6 |
| 20260506024721 | 49 | 354 | 0.0 | 2.0 | 0.17 | 0.81 | 0.81 | 99 | 1006.8 |
| 20260506024217 | 49 | 42 | 2.0 | 3.0 | 0.19 | 0.80 | 0.80 | 99 | 1006.7 |
| 20260506023713 | 49 | 342 | 1.0 | 2.0 | 0.14 | 0.78 | 0.78 | 99 | 1006.7 |
| 20260506023211 | 49 | 343 | 3.0 | 8.0 | 0.12 | 0.77 | 0.77 | 99 | 1006.7 |
| 20260506022708 | 49 | 335 | 2.0 | 3.0 | 0.12 | 0.76 | 0.76 | 99 | 1006.4 |
| 20260506022205 | 49 | 352 | 3.0 | 5.0 | 0.12 | 0.75 | 0.75 | 99 | 1006.3 |
| 20260506021703 | 49 | 347 | 1.0 | 2.0 | 0.12 | 0.74 | 0.74 | 99 | 1006.2 |
| 20260506021200 | 50 | 349 | 1.0 | 5.0 | 0.12 | 0.73 | 0.73 | 99 | 1006.3 |
| 20260506020657 | 50 | 13 | 4.0 | 6.0 | 0.12 | 0.72 | 0.72 | 99 | 1006.4 |
| 20260506020155 | 50 | 341 | 0.0 | 3.0 | 0.12 | 0.71 | 0.71 | 99 | 1006.3 |
| 20260506015652 | 50 | 4 | 2.0 | 2.0 | 0.12 | 0.70 | 0.70 | 99 | 1006.2 |
| 20260506015150 | 51 | 322 | 3.0 | 5.0 | 0.19 | 0.69 | 0.69 | 99 | 1006.3 |
| 20260506014647 | 51 | 3 | 2.0 | 9.0 | 0.24 | 0.68 | 0.68 | 99 | 1006.2 |
| 20260506014142 | 52 | 338 | 1.0 | 2.0 | 0.19 | 0.66 | 0.66 | 99 | 1006.2 |
| 20260506013640 | 53 | 5 | 2.0 | 3.0 | 0.12 | 0.64 | 0.64 | 99 | 1006.0 |
| 20260506013137 | 54 | 344 | 0.0 | 1.0 | 0.12 | 0.63 | 0.63 | 99 | 1006.1 |
| 20260506012633 | 58 | 337 | 1.0 | 2.0 | 0.19 | 0.62 | 0.62 | 99 | 1005.9 |
| 20260506012130 | 58 | 340 | 0.0 | 2.0 | 0.17 | 0.61 | 0.61 | 99 | 1005.8 |
| 20260506011628 | 58 | 348 | 0.0 | 0.0 | 0.12 | 0.59 | 0.59 | 99 | 1005.8 |
| 20260506011124 | 58 | 348 | 1.0 | 2.0 | 0.19 | 0.58 | 0.58 | 99 | 1005.9 |
| 20260506010623 | 58 | 320 | 1.0 | 2.0 | 0.28 | 0.57 | 0.57 | 99 | 1005.4 |
| 20260506010119 | 59 | 239 | 1.0 | 3.0 | 0.19 | 0.54 | 0.54 | 99 | 1005.5 |
| 20260506005616 | 59 | 325 | 0.0 | 2.0 | 0.14 | 0.52 | 0.52 | 99 | 1005.5 |
| 20260506005112 | 59 | 201 | 1.0 | 5.0 | 0.07 | 0.51 | 0.51 | 99 | 1005.2 |
| 20260506004609 | 59 | 298 | 1.0 | 1.0 | 0.05 | 0.50 | 0.50 | 99 | 1005.2 |
| 20260506004106 | 59 | 339 | 0.0 | 3.0 | 0.12 | 0.50 | 0.50 | 99 | 1005.3 |
| 20260506003603 | 59 | 301 | 0.0 | 2.0 | 0.07 | 0.49 | 0.49 | 99 | 1005.5 |
| 20260506003059 | 59 | 336 | 0.0 | 1.0 | 0.05 | 0.48 | 0.48 | 99 | 1005.2 |
| 20260506002555 | 58 | 334 | 1.0 | 2.0 | 0.05 | 0.48 | 0.48 | 99 | 1005.2 |
| 20260506002051 | 58 | 265 | 2.0 | 2.0 | 0.07 | 0.47 | 0.47 | 99 | 1005.4 |
| 20260506001547 | 58 | 219 | 1.0 | 3.0 | 0.07 | 0.47 | 0.47 | 99 | 1005.5 |
| 20260506001044 | 58 | 328 | 0.0 | 1.0 | 0.05 | 0.46 | 0.46 | 99 | 1005.2 |
| 20260506000542 | 58 | 225 | 1.0 | 1.0 | 0.05 | 0.46 | 0.46 | 99 | 1005.2 |
| 20260506000039 | 58 | 216 | 1.0 | 3.0 | 0.00 | 0.45 | 0.45 | 99 | 1005.4 |
| 20260505235537 | 58 | 337 | 1.0 | 2.0 | 0.07 | 0.45 | 0.45 | 99 | 1005.2 |